Location: Amsterdam
(30.7274°N, 84.4357°W)
Time: 15:27:31
(UTC+00:00)

Vanguard 1 Rocket - Pass Details

Date: 25 February 2026
Orbit: 653 x 4214 km, 34.3° (Epoch: 6 March)

Event Time Altitude Azimuth Distance (km) Brightness Sun altitude
Rises 02:08:05 0° 276° (W) 7,173 13.0 -34.0°
Reaches altitude 10° 02:14:44 10° 262° (W) 6,668 12.5 -35.4°
Maximum altitude 02:28:58 20° 224° (SW) 6,454 11.9 -38.4°
Drops below altitude 10° 02:44:50 10° 185° (S) 7,292 11.8 -41.7°
Sets 02:53:08 0° 170° (S) 7,990 12.0 -43.4°
